{"data":{"norad_id":56920,"epoch":"2026-05-24T22:59:32.388864Z","epoch_age_seconds":78428,"freshness":"FRESH","line1":"1 56920U 23083AW  26144.95801376  .00000075  00000+0  12260-4 0  9990","line2":"2 56920  43.0036 359.8442 0000925 246.9675 113.1079 15.27577166163469","mean_motion":15.27577166,"eccentricity":9.25e-5,"inclination_deg":43.0036,"raan_deg":359.8442,"arg_perigee_deg":246.9675,"mean_anomaly_deg":113.1079,"bstar":1.226e-5,"rev_number":16346,"period_min":94.266923599721,"perigee_km":482.42292156946,"apogee_km":483.69224256714,"semimajor_km":6861.1945820683,"source":"CELESTRAK","updated_at":"2026-05-25T13:38:18.205988Z"}}